Theta_e
364 364 363 362 362 361 360 362 365 365 363 361 361 361 360 359 358 357 356 359 362 363 362 361 363 363 362 361 361 361 360 359 357 357 355 351 350 351 351 347 343 344
364 365 366 364 364 363 362 362 363 364 363 361 359 358 361 360 359 359 357 358 362 363 362 361 362 363 363 361 361 361 361 361 359 356 355 352 350 352 351 348 345 344
365 366 366 364 364 364 364 363 362 363 363 363 360 359 359 360 360 361 360 359 361 362 362 361 361 362 362 360 360 361 361 361 360 357 355 353 351 352 351 347 345 345
365 365 365 364 363 364 365 364 363 363 363 363 362 360 358 359 361 362 362 362 362 362 361 361 361 361 361 360 360 361 361 361 360 358 356 353 351 351 351 346 346 346
365 365 365 364 364 363 364 364 364 363 364 363 362 362 360 359 360 362 363 363 363 363 361 361 361 361 361 361 359 360 361 360 359 358 356 353 351 352 351 347 346 346
365 365 364 364 363 363 364 366 365 364 364 362 363 363 362 361 362 362 363 364 364 363 360 360 361 360 361 362 361 360 360 358 357 357 356 354 353 353 351 348 347 347
365 366 364 364 364 364 365 367 366 365 365 364 362 362 363 362 362 362 362 363 363 363 360 359 361 361 360 361 362 360 360 358 357 356 356 354 353 354 353 349 348 348
365 366 366 365 363 364 365 366 366 367 365 364 364 363 363 363 363 364 363 363 364 363 362 360 361 362 361 362 363 362 360 359 358 357 357 355 354 354 354 351 349 349
366 366 365 365 363 364 365 364 365 367 367 365 364 363 364 364 363 364 364 364 363 364 364 362 362 363 363 362 363 363 362 361 360 359 359 357 356 355 355 354 351 351
366 365 364 364 363 362 363 363 362 366 367 366 364 361 362 364 364 364 365 365 364 364 364 364 363 364 364 363 363 364 364 362 361 361 360 359 357 356 357 356 353 352
366 365 364 364 363 361 362 361 361 363 365 365 365 361 359 362 364 365 365 366 366 364 364 365 365 365 365 364 363 363 365 364 363 362 361 360 359 358 358 357 354 353
367 366 366 364 364 361 360 360 360 360 362 364 365 363 359 360 364 365 366 366 367 366 365 366 366 366 367 365 363 363 364 364 363 362 362 361 361 360 359 358 356 354
366 366 366 365 364 363 361 360 359 358 359 362 364 365 362 359 361 365 366 366 367 368 366 366 366 366 367 367 364 362 363 365 364 363 363 363 362 361 359 358 356 356
365 367 367 365 364 364 362 360 360 359 358 360 363 365 364 360 359 362 365 367 367 368 368 367 367 368 367 367 366 363 362 364 365 363 363 364 364 362 360 359 357 356
366 367 367 367 365 364 363 361 361 360 359 360 362 364 364 362 358 359 364 366 368 369 369 367 367 368 368 367 367 365 363 363 364 364 362 362 363 363 361 360 358 357
367 366 368 367 366 365 365 365 363 362 361 360 361 363 363 364 362 359 361 365 367 369 370 369 368 368 367 365 365 366 365 363 364 364 362 361 363 363 362 360 359 358
368 367 368 369 367 366 367 367 366 363 363 362 361 362 364 364 364 362 360 363 366 368 369 370 370 368 366 365 364 364 365 365 365 364 364 363 362 363 363 362 361 359
370 369 370 370 369 369 368 369 367 365 364 364 363 363 365 365 365 365 362 362 365 367 369 370 369 367 365 365 364 362 362 364 365 364 364 364 363 363 363 363 362 360
371 370 371 371 371 370 369 370 369 367 366 366 365 366 365 365 366 366 365 364 364 366 368 369 369 369 366 364 363 362 360 362 364 364 364 364 364 363 363 364 363 361
372 371 371 371 373 372 371 371 370 369 368 366 366 367 366 367 367 366 367 365 364 365 366 369 369 368 367 365 362 361 359 359 361 363 364 364 365 364 363 364 363 362
372 373 371 372 373 373 372 371 371 370 369 367 367 367 367 368 368 368 367 366 366 366 366 367 368 367 368 366 363 361 360 359 360 363 363 364 365 365 364 363 363 363
373 373 373 373 373 373 372 371 371 371 370 367 366 366 367 368 368 368 368 367 368 367 365 366 367 367 367 366 365 362 360 359 360 361 362 363 365 365 365 364 363 363
373 373 373 374 374 374 372 372 371 372 371 369 367 366 368 368 369 369 369 368 368 367 367 367 366 366 366 366 365 364 362 360 360 361 362 362 363 364 364 364 364 363
373 374 374 373 375 374 373 372 372 372 371 370 367 367 367 368 368 369 369 368 368 367 368 367 366 366 366 366 365 364 363 361 359 361 362 362 363 364 364 364 363 362
373 373 374 373 373 374 373 372 372 372 372 370 369 368 367 367 367 368 368 368 368 367 367 366 366 367 366 365 364 364 363 361 360 361 362 362 362 363 363 363 362 361
373 374 374 373 373 374 373 372 372 372 372 371 371 369 368 367 367 367 368 368 367 367 366 365 366 367 366 366 365 363 362 361 361 361 362 362 362 362 363 363 361 361
Wind_Speed
25 25 25 25 24 23 23 23 21 21 21 21 20 19 20 20 19 19 19 19 19 19 18 18 17 17 15 15 14 12 12 12 12 11 12 12 13 13 13 14 13 12
27 25 24 24 24 24 24 24 23 22 22 22 21 20 19 20 20 21 20 20 20 20 19 19 19 18 17 15 15 14 13 13 13 13 13 13 14 14 14 14 15 13
28 27 26 25 25 25 24 24 23 23 22 22 22 21 20 20 21 22 22 22 21 21 20 20 19 19 18 16 16 16 15 15 14 14 14 14 15 15 14 14 15 14
31 29 28 27 25 25 24 24 24 24 23 23 23 23 21 20 21 22 22 23 22 22 21 21 20 19 18 17 17 16 16 16 16 15 15 15 16 16 14 14 14 14
34 32 29 27 26 25 24 24 25 25 25 24 23 23 23 22 21 22 22 23 23 23 22 22 22 21 20 19 18 17 17 17 17 17 17 17 17 17 15 15 15 15
34 33 31 29 27 26 25 26 26 26 25 25 24 23 23 23 23 23 23 24 24 23 23 23 23 22 21 21 20 19 18 18 18 19 19 18 18 17 17 16 16 16
34 34 33 31 29 28 28 27 27 26 26 25 25 24 24 24 24 24 24 24 24 24 23 23 23 23 22 22 22 21 20 20 19 20 21 20 19 18 18 17 18 18
34 34 33 33 31 31 30 29 27 27 27 26 25 25 25 25 25 25 25 24 24 24 24 24 24 24 23 22 22 22 22 21 20 21 22 22 21 20 19 19 18 19
34 34 34 34 33 32 31 31 29 28 28 27 27 26 26 26 26 25 25 25 25 24 24 24 24 24 24 23 23 23 23 22 21 22 23 23 22 21 21 20 19 20
34 34 34 35 35 34 33 33 31 29 29 29 28 27 26 26 26 25 25 25 25 24 24 24 24 25 25 24 24 24 23 23 23 23 23 24 23 22 22 22 21 21
35 35 35 36 36 35 35 35 33 31 30 30 30 29 27 26 26 26 26 25 25 25 25 25 25 25 25 25 24 24 24 24 23 23 23 24 24 23 23 23 23 22
35 35 35 37 37 36 35 35 35 33 31 30 29 29 29 28 27 27 27 27 27 27 27 27 27 27 26 26 25 25 25 24 24 23 23 23 24 24 24 24 24 24
35 35 35 36 36 35 35 34 34 34 32 30 29 29 30 30 29 28 28 28 28 28 28 29 28 28 28 27 27 26 25 25 24 24 23 23 24 24 24 25 25 24
35 34 34 35 35 35 34 33 33 33 33 31 30 29 30 30 30 30 29 28 29 30 30 30 30 29 29 29 29 28 27 26 25 25 25 24 24 24 25 26 25 25
33 32 32 33 33 34 34 33 32 32 32 32 30 30 29 30 30 30 29 29 29 30 30 30 30 31 31 31 30 29 29 28 27 26 26 26 25 25 26 27 26 25
31 31 31 32 33 33 34 33 32 30 31 31 31 30 29 29 29 30 30 29 29 29 30 30 30 31 33 35 34 32 29 28 28 27 27 27 26 25 26 27 27 26
31 31 30 31 33 32 32 32 32 30 30 31 31 31 30 29 28 29 30 30 30 30 30 30 31 32 35 38 38 36 32 29 28 28 27 27 27 26 26 27 27 26
30 30 30 30 31 31 31 31 31 30 29 29 30 31 30 29 29 29 31 30 30 30 31 31 31 33 37 39 41 41 38 32 27 27 27 27 28 27 26 26 26 26
29 30 30 29 30 30 29 28 29 30 29 29 29 30 30 30 30 30 30 31 31 30 31 31 31 33 37 40 42 43 43 38 31 27 27 27 27 28 28 27 26 25
29 29 30 29 28 28 28 28 29 31 31 29 29 29 30 31 31 30 31 32 32 31 31 31 31 32 36 40 43 43 45 44 37 29 27 28 28 29 29 28 28 27
29 29 29 29 28 28 29 30 31 31 32 31 30 30 31 31 31 31 32 32 32 32 31 31 31 32 35 38 42 44 45 46 42 33 29 29 29 30 30 30 30 29
29 29 29 28 29 29 31 32 31 31 31 31 30 29 29 30 30 31 31 31 32 32 32 32 31 32 35 37 41 43 44 46 46 37 31 30 29 29 30 30 30 31
29 29 28 28 29 29 31 31 30 29 29 29 29 29 29 30 29 29 30 31 32 32 32 32 31 33 37 39 40 42 43 47 47 38 31 31 29 29 31 31 32 33
29 29 28 28 28 29 30 29 29 28 28 28 29 29 29 29 28 27 28 29 31 32 32 32 31 33 37 39 41 42 43 46 46 37 31 30 30 30 32 33 33 35
28 28 27 28 28 29 28 28 27 27 26 27 28 28 27 26 26 26 26 28 29 31 33 33 32 32 35 37 39 41 42 46 43 35 30 31 29 29 31 32 34 37
26 27 27 27 27 27 25 25 25 25 24 25 26 25 25 25 26 26 26 27 28 29 31 33 33 33 34 36 38 40 43 45 41 33 31 32 30 29 30 31 33 37
Wind_Direction
204 204 204 203 205 206 207 207 206 206 207 208 209 211 211 212 211 210 209 209 209 209 210 209 206 203 201 202 204 205 207 206 207 206 204 210 215 216 215 211 211 215
202 202 202 202 204 205 207 209 208 208 209 209 212 213 212 211 209 208 208 207 207 208 209 209 208 205 200 200 202 204 207 206 207 209 206 210 214 216 218 214 210 213
200 201 201 202 204 204 205 208 210 210 210 210 212 212 212 211 209 207 206 206 206 206 208 208 208 208 204 201 202 204 207 206 207 209 208 211 215 216 217 216 212 209
199 200 202 204 205 205 204 207 210 210 210 211 211 211 212 212 210 208 206 205 205 205 205 205 206 207 205 203 202 204 207 207 209 209 209 211 213 215 216 214 214 210
198 199 201 203 205 205 205 207 210 210 210 210 210 210 210 210 209 208 206 205 205 205 204 203 203 204 204 204 202 204 206 207 210 211 211 211 211 212 215 212 212 211
196 198 200 202 203 204 205 208 210 210 211 210 209 209 209 209 209 209 208 206 205 206 206 204 202 202 203 203 204 204 205 207 210 210 211 213 210 210 211 211 211 211
195 197 198 200 202 203 205 208 209 210 211 210 209 208 209 209 209 210 209 208 207 208 209 207 203 201 202 202 204 205 206 209 209 209 212 214 212 210 210 208 208 209
195 195 196 198 201 202 205 208 209 209 209 209 208 208 208 209 210 210 210 209 209 208 208 208 204 201 201 202 204 205 205 208 208 207 209 212 212 211 210 209 206 206
194 195 196 198 200 202 204 207 208 208 208 208 208 208 209 210 210 210 209 208 209 209 208 207 205 203 203 203 205 206 206 207 207 206 206 208 209 210 210 209 207 205
195 196 197 199 201 204 205 207 208 208 207 208 209 210 210 210 210 209 208 207 208 208 207 207 206 203 204 205 206 206 208 208 207 206 206 206 207 208 208 209 207 205
196 197 198 200 202 205 207 208 209 209 209 209 209 211 212 211 209 208 207 206 206 207 207 206 206 205 204 206 207 207 209 210 209 208 207 206 206 207 208 208 208 207
197 198 200 201 203 206 208 209 210 210 211 210 209 210 212 212 209 207 206 206 205 206 207 205 205 205 205 206 207 208 209 211 212 212 210 208 206 207 208 208 209 208
198 199 200 202 204 207 208 209 210 211 212 211 209 209 210 211 211 208 206 205 204 204 206 205 204 205 206 207 208 209 209 210 212 213 213 210 207 207 210 211 210 210
198 198 200 203 204 206 208 209 210 211 211 210 208 208 209 211 211 209 206 205 205 204 204 204 204 204 205 207 208 209 209 209 210 213 214 214 211 210 214 217 214 211
196 197 199 202 204 205 206 208 208 208 209 209 209 208 210 211 212 211 208 206 205 204 204 204 205 205 206 207 207 208 209 209 210 212 215 216 214 213 216 219 217 213
194 197 198 200 202 204 204 205 206 206 207 208 209 209 210 211 212 213 211 209 206 205 204 205 206 208 209 210 209 208 208 209 210 212 214 216 216 215 216 219 219 216
193 195 196 198 200 202 202 201 203 205 206 207 208 209 209 210 211 213 214 212 209 207 206 206 207 211 212 212 212 211 209 209 210 211 213 214 216 216 216 218 218 217
192 192 194 196 197 198 199 198 199 203 206 206 207 208 208 209 211 212 213 213 211 210 210 210 210 213 214 213 213 213 212 210 210 212 212 213 215 216 216 216 216 216
192 191 193 195 195 195 195 195 196 201 204 205 205 205 206 208 210 210 211 213 213 212 212 213 214 214 215 214 215 215 215 213 211 212 213 213 213 215 215 215 214 214
192 192 194 194 193 191 191 193 196 200 203 204 204 204 205 207 209 210 211 212 214 215 214 216 217 217 216 216 216 217 217 215 213 213 215 215 214 213 213 213 212 211
193 193 193 192 190 189 190 194 197 199 201 203 204 204 205 207 208 210 211 212 214 215 217 219 220 219 218 217 217 219 219 217 214 213 216 218 216 213 212 212 212 210
194 192 191 191 190 190 193 196 198 199 199 200 203 206 206 208 209 211 212 213 214 215 218 221 221 221 220 219 218 219 219 217 214 213 215 218 217 215 213 212 211 209
194 193 191 191 191 193 196 198 198 199 198 199 202 206 208 208 210 211 212 213 214 214 216 221 224 224 222 220 219 218 216 215 214 213 215 219 219 217 216 214 213 211
195 194 193 193 194 196 198 199 199 199 199 199 202 206 209 210 210 212 214 215 216 216 216 220 225 227 225 223 220 217 214 214 213 212 215 219 219 219 219 218 218 216
197 198 196 195 197 199 199 199 199 200 200 201 204 208 211 212 213 215 217 219 221 221 221 222 225 228 228 226 222 218 215 214 212 210 214 218 218 219 220 220 222 222
199 199 198 198 200 200 200 200 199 200 201 202 205 209 212 214 215 217 220 221 222 224 224 224 224 227 230 228 222 219 217 213 210 209 213 216 216 219 221 221 223 226